Weather History for Lucknow, India

Change the Weather History Date:

Monday, October 17, 2011

  Actual Average Record
Temperature  
Mean Temperature 76 °F -  
Max Temperature 91 °F 81 °F 100 °F (2007)
Min Temperature 62 °F 63 °F 60 °F (2014)
Cooling Degree Days 12    
Growing Degree Days 26 (Base 50)    
Moisture  
Dew Point 59 °F    
Average Humidity 58    
Maximum Humidity 88    
Minimum Humidity 24    
Precipitation  
Precipitation 0.00 in - - ()
Sea Level Pressure  
Sea Level Pressure 29.82 in    
Wind  
Wind Speed 1 mph ()    
Max Wind Speed 6 mph    
Max Gust Speed -    
Visibility 2.6 miles    
Events      
Averages and records for this station are not official NWS values.
T = Trace of Precipitation, MM = Missing Value Source: Averaged Metar Reports

Daily Weather History Graph

Daily Weather History Graph

Search for Another Location

Airport:

Trip Planner

Search our weather history database for the weather conditions in past years. The results will help you decide how hot, cold, wet, or windy it might be!

Date:

Astronomy

Oct. 17, 2011 Rise Set
Actual Time 6:06 AM IST 5:36 PM IST
Civil Twilight 5:43 AM IST 6:00 PM IST
Nautical Twilight 5:16 AM IST 6:27 PM IST
Astronomical Twilight 4:49 AM IST 6:54 PM IST
Moon 9:13 PM IST (10/17) 10:27 AM IST (10/17)
Length of Visible Light 12h 17m
Length of Day
11h 30m
Waning Gibbous, 77% of the Moon is Illuminated
Oct 17
Waning Gibbous
Oct 20
Last Quarter
Oct 27
New
Nov 2
First Quarter
Nov 11
Full

Hourly Weather History & Observations

Time (IST) Temp. Heat Index Dew Point Humidity Pressure Visibility Wind Dir Wind Speed Gust Speed Precip Events Conditions
12:00 AM 69.8 °F - 62.6 °F 78% 29.80 in 2.5 mi Calm Calm - N/A   Haze
1:00 AM 69.8 °F - 62.6 °F 78% 29.80 in 2.5 mi Calm Calm - N/A   Haze
2:00 AM 69.8 °F - 62.6 °F 78% 29.80 in 2.5 mi Calm Calm - N/A   Haze
3:00 AM 66.2 °F - 60.8 °F 83% 29.77 in 2.2 mi Calm Calm - N/A   Haze
5:00 AM 66.2 °F - 60.8 °F 83% 29.80 in 1.9 mi Calm Calm - N/A   Mist
6:00 AM 64.4 °F - 60.8 °F 88% 29.83 in 1.2 mi Calm Calm - N/A   Mist
7:00 AM 66.2 °F - 62.6 °F 88% 29.86 in 1.2 mi West 5.8 mph - N/A   Mist
8:00 AM 73.4 °F - 62.6 °F 69% 29.89 in 1.4 mi WNW 3.5 mph - N/A   Mist
8:30 AM 75 °F - 59 °F 48% 29.90 in 1 mi WNW 4.6 mph - -   Haze
10:00 AM 84.2 °F 83.8 °F 59.0 °F 42% 29.89 in 2.2 mi Variable 2.3 mph - N/A   Haze
11:00 AM 87.8 °F 86.1 °F 55.4 °F 33% 29.86 in 2.5 mi Variable 2.3 mph - N/A   Haze
1:00 PM 91.4 °F - 51.8 °F 26% 29.80 in 3.7 mi WNW 3.5 mph - N/A   Unknown
2:00 PM 91.4 °F - 51.8 °F 26% 29.77 in 3.7 mi North 3.5 mph - N/A   Unknown
3:00 PM 91.4 °F - 50.0 °F 24% 29.77 in 3.7 mi NW 4.6 mph - N/A   Unknown
4:00 PM 91.4 °F - 50.0 °F 24% 29.77 in 3.7 mi North 3.5 mph - N/A   Unknown
5:00 PM 89.6 °F 88.9 °F 59.0 °F 36% 29.77 in 3.7 mi Variable 2.3 mph - N/A   Unknown
6:00 PM 82.4 °F 83.4 °F 62.6 °F 51% 29.77 in 3.1 mi Calm Calm - N/A   Haze
7:00 PM 80.6 °F 81.8 °F 62.6 °F 54% 29.80 in 3.1 mi Calm Calm - N/A   Haze
8:00 PM 78.8 °F - 62.6 °F 57% 29.83 in 3.1 mi Calm Calm - N/A   Haze
9:00 PM 75.2 °F - 64.4 °F 69% 29.83 in 3.1 mi Calm Calm - N/A   Haze
10:00 PM 73.4 °F - 62.6 °F 69% 29.83 in 3.1 mi Calm Calm - N/A   Haze
11:00 PM 73.4 °F - 62.6 °F 69% 29.86 in 3.1 mi Calm Calm - N/A   Haze